| time (UTC) | temp F | wind direction | speed knots | gust knots | rain 1hr in | rain 24hr in | rain mn in | humidity % | barometer mb |
| 20260506131702 | 50 | 315 | 0.0 | 1.7 | 0.14 | 0.67 | 0.63 | 94 | 1011.1 |
| 20260506124713 | 49 | 306 | 0.9 | 4.3 | 0.06 | 0.60 | 0.52 | 94 | 1011.1 |
| 20260506121716 | 49 | 194 | 0.9 | 5.2 | 0.12 | 0.57 | 0.49 | 94 | 1011.0 |
| 20260506114702 | 49 | 232 | 0.0 | 6.1 | 0.19 | 0.55 | 0.46 | 93 | 1011.1 |
| 20260506111712 | 49 | 196 | 0.0 | 2.6 | 0.10 | 0.46 | 0.37 | 93 | 1011.2 |
| 20260506110211 | 49 | 205 | 0.0 | 3.5 | 0.09 | 0.44 | 0.35 | 92 | 1011.4 |
| 20260506104709 | 50 | 212 | 0.9 | 2.6 | 0.01 | 0.49 | 0.28 | 92 | 1011.4 |
| 20260506101652 | 49 | 196 | 0.9 | 4.3 | 0.01 | 0.48 | 0.27 | 92 | 1011.7 |
| 20260506094716 | 49 | 238 | 0.0 | 1.7 | 0.01 | 0.61 | 0.27 | 92 | 1011.8 |
| 20260506091722 | 48 | 237 | 0.0 | 1.7 | 0.00 | 0.61 | 0.26 | 91 | 1011.8 |
| 20260506090219 | 48 | 237 | 0.9 | 3.5 | 0.00 | 0.61 | 0.26 | 89 | 1011.8 |
| 20260506084705 | 48 | 299 | 0.0 | 1.7 | 0.00 | 0.61 | 0.26 | 91 | 1011.7 |
| 20260506083206 | 48 | 261 | 0.0 | 3.5 | 0.01 | 0.61 | 0.26 | 91 | 1011.5 |
| 20260506081659 | 48 | 304 | 0.0 | 1.7 | 0.02 | 0.61 | 0.26 | 92 | 1011.5 |
| 20260506073209 | 47 | 65 | 0.0 | 1.7 | 0.06 | 0.61 | 0.25 | 95 | 1011.7 |
| 20260506070214 | 47 | 65 | 0.0 | 1.7 | 0.12 | 0.58 | 0.23 | 95 | 1011.7 |
| 20260506060204 | 46 | 74 | 0.0 | 0.0 | 0.10 | 0.46 | 0.11 | 95 | 1012.2 |
| 20260506044704 | 44 | 74 | 0.0 | 0.0 | 0.00 | 0.35 | 0.00 | 95 | 1012.0 |
| 20260506043203 | 43 | 74 | 0.0 | 0.0 | 0.00 | 0.35 | 0.00 | 95 | 1011.8 |
| 20260506040224 | 43 | 74 | 0.0 | 0.0 | 0.00 | 0.35 | 0.00 | 94 | 1011.8 |
| 20260506034707 | 44 | 74 | 0.0 | 0.0 | 0.00 | 0.35 | 0.00 | 94 | 1012.0 |
| 20260506031919 | 44 | 74 | 0.0 | 1.7 | 0.00 | 0.35 | 0.00 | 95 | 1012.7 |
| 20260506030216 | 43 | 74 | 0.0 | 1.7 | 0.00 | 0.35 | 0.00 | 94 | 1012.7 |
| 20260506023213 | 44 | 74 | 0.0 | 1.7 | 0.00 | 0.35 | 0.00 | 93 | 1012.9 |
| 20260506021702 | 44 | 74 | 0.0 | 0.9 | 0.00 | 0.35 | 0.00 | 94 | 1012.9 |
| 20260506014715 | 45 | 55 | 0.0 | 1.7 | 0.00 | 0.35 | 0.00 | 93 | 1012.8 |
| 20260506013205 | 46 | 55 | 0.0 | 0.0 | 0.00 | 0.35 | 0.00 | 94 | 1013.0 |
| 20260506011659 | 47 | 55 | 0.0 | 0.0 | 0.00 | 0.35 | 0.00 | 94 | 1013.3 |
| 20260506004717 | 47 | 52 | 0.9 | 2.6 | 0.00 | 0.35 | 0.00 | 94 | 1013.2 |
| 20260506001715 | 47 | 211 | 0.0 | 0.0 | 0.00 | 0.35 | 0.00 | 94 | 1013.7 |
| 20260505234700 | 47 | 211 | 0.0 | 0.0 | 0.00 | 0.35 | 0.00 | 94 | 1013.7 |
| 20260505231719 | 47 | 211 | 0.0 | 0.0 | 0.00 | 0.35 | 0.00 | 94 | 1014.1 |
| 20260505230155 | 47 | 211 | 0.0 | 0.0 | 0.00 | 0.35 | 0.00 | 94 | 1014.0 |
| 20260505223210 | 47 | 211 | 0.0 | 0.0 | 0.00 | 0.35 | 0.00 | 94 | 1014.2 |
| 20260505220320 | 47 | 211 | 0.0 | 0.0 | 0.00 | 0.35 | 0.00 | 94 | 1014.2 |
| 20260505214710 | 47 | 211 | 0.0 | 0.0 | 0.00 | 0.35 | 0.35 | 94 | 1014.5 |
| 20260505211721 | 47 | 211 | 0.0 | 0.0 | 0.00 | 0.35 | 0.35 | 94 | 1014.6 |
| 20260505204720 | 47 | 211 | 0.0 | 0.0 | 0.00 | 0.35 | 0.35 | 93 | 1014.5 |
| 20260505203215 | 47 | 211 | 0.0 | 0.0 | 0.00 | 0.35 | 0.35 | 94 | 1014.7 |
| 20260505201653 | 48 | 211 | 0.0 | 0.0 | 0.00 | 0.35 | 0.35 | 94 | 1014.9 |
| 20260505194723 | 48 | 211 | 0.0 | 0.0 | 0.00 | 0.35 | 0.35 | 94 | 1014.7 |
| 20260505193151 | 48 | 211 | 0.0 | 0.0 | 0.01 | 0.35 | 0.35 | 94 | 1014.6 |
| 20260505190221 | 48 | 211 | 0.0 | 1.7 | 0.01 | 0.35 | 0.35 | 93 | 1014.5 |
| 20260505183200 | 48 | 211 | 0.0 | 1.7 | 0.00 | 0.35 | 0.35 | 93 | 1014.3 |
| 20260505180218 | 48 | 211 | 0.0 | 0.0 | 0.00 | 0.35 | 0.35 | 93 | 1013.8 |
| 20260505173215 | 48 | 211 | 0.0 | 0.0 | 0.00 | 0.35 | 0.35 | 93 | 1013.8 |
| 20260505171711 | 48 | 211 | 0.0 | 1.7 | 0.01 | 0.35 | 0.35 | 93 | 1013.7 |
| 20260505164718 | 48 | 202 | 0.9 | 2.6 | 0.02 | 0.35 | 0.35 | 92 | 1013.7 |
| 20260505163213 | 48 | 202 | 0.9 | 2.6 | 0.02 | 0.35 | 0.35 | 93 | 1013.7 |
| 20260505161712 | 48 | 194 | 0.9 | 2.6 | 0.01 | 0.34 | 0.34 | 92 | 1014.0 |
| 20260505151713 | 48 | 200 | 0.0 | 1.7 | 0.01 | 0.33 | 0.33 | 92 | 1014.0 |
| 20260505150201 | 48 | 200 | 0.0 | 1.7 | 0.01 | 0.33 | 0.33 | 92 | 1013.9 |